Theta_e
310 310 311 311 308 311 310 312 313 313 312 312 310 310 310 307 305 304 304 303 302 302 303 303 303 304 307 310 311 312 313 314 316 317 317 315 315 315 315 315 316 318 316 314
311 311 310 310 310 311 312 313 312 310 310 310 311 310 309 307 307 307 307 306 304 303 298 300 302 304 307 309 311 311 312 313 314 315 315 313 312 309 310 311 312 314 312 310
312 313 311 311 311 312 311 311 312 313 312 310 310 310 310 310 307 306 306 307 306 305 302 300 299 303 306 309 310 311 311 312 311 312 312 310 306 304 304 303 306 306 304 303
312 312 313 312 313 312 313 310 312 313 314 315 311 316 312 310 310 308 309 306 307 305 302 300 300 302 305 307 310 311 311 310 310 311 310 311 307 300 300 302 301 298 295 295
313 312 313 314 313 312 314 311 311 313 312 313 312 313 314 312 312 312 311 309 308 304 302 300 300 302 304 306 310 310 310 308 308 309 309 307 304 304 301 298 295 292 290 291
311 310 311 313 311 311 310 312 311 311 311 315 315 314 313 313 313 313 312 311 307 302 300 300 300 301 303 306 309 309 308 307 307 307 306 305 305 301 295 293 290 289 289 289
312 312 311 310 313 311 312 313 316 315 314 318 312 312 316 312 311 311 313 310 307 302 298 297 298 301 302 304 306 307 306 304 304 304 304 303 302 303 298 293 290 288 288 288
313 312 311 309 313 314 312 313 315 316 315 313 312 316 316 310 310 308 308 307 306 300 297 297 298 301 301 303 304 305 303 302 301 301 302 302 301 300 295 292 290 288 288 288
313 313 311 310 311 313 312 314 313 315 298 310 314 312 312 310 309 308 308 306 303 300 297 296 298 300 301 301 303 303 302 301 301 302 300 299 298 297 293 290 289 289 288 288
313 314 310 310 311 311 312 311 316 312 313 313 314 315 316 315 312 312 310 309 303 299 296 295 297 299 300 300 301 301 301 301 302 302 302 300 297 294 292 290 289 288 287 287
312 314 312 310 311 312 312 313 312 313 312 315 314 317 311 315 312 312 310 308 304 300 296 295 295 297 298 298 298 299 300 300 300 302 300 297 294 292 290 289 288 287 287 287
311 315 312 312 309 308 310 313 312 313 313 311 312 318 310 311 310 308 309 308 304 299 295 294 294 294 294 295 296 296 297 298 299 299 297 294 293 290 289 288 287 287 287 286
312 314 310 313 313 308 310 311 312 311 307 314 315 319 306 307 308 307 308 308 302 298 294 293 291 292 292 292 293 294 294 295 297 296 294 291 290 289 288 288 287 287 286 286
313 315 313 318 316 312 312 311 311 314 316 317 317 318 314 310 308 308 307 305 302 298 295 293 291 291 292 292 292 292 292 293 294 293 292 291 290 289 288 288 287 286 286 285
316 318 316 316 314 312 312 311 312 314 315 317 317 317 317 314 309 309 308 305 302 299 295 294 293 291 291 291 291 291 291 291 292 291 291 290 290 288 288 287 287 286 285 285
314 317 317 318 316 313 314 312 312 313 315 315 316 316 315 313 310 309 307 305 303 300 298 296 294 292 291 291 291 290 290 290 290 289 289 288 288 288 288 287 287 286 285 284
315 317 318 321 317 316 318 317 316 312 313 314 316 316 314 314 312 312 309 304 304 303 301 298 295 293 293 292 291 290 289 289 289 288 288 288 288 288 288 287 287 286 285 284
315 317 317 322 317 323 319 315 316 317 316 313 313 315 314 313 312 308 306 307 305 304 301 298 296 295 294 292 291 290 289 288 288 287 287 287 287 287 287 287 286 285 284 284
317 318 320 322 323 320 318 313 315 315 318 316 315 313 312 311 307 310 304 305 306 303 302 302 300 297 294 292 291 290 288 287 287 286 287 287 287 287 287 286 286 285 284 284
316 317 318 316 323 324 318 313 309 313 321 316 314 315 314 312 314 316 310 304 301 301 300 299 299 296 293 291 290 288 287 287 287 287 286 287 288 287 286 286 285 285 286 287
316 318 320 320 322 318 307 298 308 320 317 299 307 312 310 312 313 303 299 301 298 297 297 297 295 292 291 290 289 288 287 287 287 288 287 287 286 287 286 286 286 287 287 285
316 318 320 319 321 321 300 304 314 308 295 295 302 303 304 302 301 298 297 296 296 295 294 293 292 290 290 289 289 288 287 288 288 288 287 286 286 286 286 288 289 288 285 284
313 312 315 316 318 307 301 298 297 296 296 300 301 300 299 300 298 297 295 294 293 292 292 292 291 289 289 289 289 288 288 288 288 288 288 288 288 288 289 288 285 284 283 283
303 303 307 311 307 306 303 297 295 294 295 295 297 297 295 298 295 294 292 291 290 286 288 291 290 288 287 289 290 291 290 291 291 291 290 289 288 287 286 285 285 285 284 283
301 302 307 307 303 303 302 298 296 294 292 293 293 294 294 294 292 292 288 286 285 285 288 291 290 288 287 290 290 291 291 290 289 288 287 286 286 285 285 284 285 285 284 284
298 302 308 310 303 304 305 299 296 293 292 292 292 292 290 291 290 288 286 285 285 285 287 288 288 287 287 290 291 290 290 290 289 287 286 286 285 285 284 283 282 281 281 281
Wind_Speed
3 3 8 13 9 3 5 4 5 4 3 4 7 10 13 8 7 9 10 12 14 17 14 25 27 25 23 21 21 21 23 25 27 27 27 25 24 22 22 20 19 17 19 19
4 8 10 5 4 4 2 3 6 5 4 6 8 12 12 5 8 12 16 16 17 13 8 20 30 28 28 27 25 25 27 28 28 29 28 26 26 22 22 21 21 20 20 20
8 5 4 8 5 5 5 7 5 8 3 3 5 8 9 10 7 8 13 17 13 19 18 14 22 33 32 32 31 30 31 31 31 30 29 27 24 24 21 23 23 22 21 22
7 4 5 5 6 9 7 9 6 5 2 4 2 7 5 5 10 9 17 14 21 17 10 13 23 26 35 37 33 32 32 34 32 31 31 33 32 28 26 28 26 25 24 26
9 8 7 7 7 9 7 5 7 3 3 2 5 3 4 1 8 15 16 17 17 12 17 18 25 34 35 35 36 35 34 34 33 32 33 35 32 30 31 29 29 28 27 26
5 2 7 7 2 7 7 6 6 4 3 3 9 8 5 6 9 6 14 18 10 10 11 11 20 24 28 36 37 37 36 37 35 34 34 35 35 31 34 34 33 31 30 28
2 5 3 4 5 3 4 6 2 3 1 9 3 5 18 6 10 12 15 13 5 5 8 8 12 21 26 35 37 37 38 37 37 36 35 36 35 36 39 40 39 36 33 31
10 9 11 7 9 8 8 9 6 8 4 5 1 7 6 10 11 9 9 8 3 6 8 12 16 24 27 32 36 37 38 37 39 37 36 35 35 38 40 42 42 39 37 33
6 7 1 2 4 10 6 8 5 2 2 2 5 8 8 11 12 9 13 7 6 9 8 8 12 21 26 32 40 40 38 38 40 38 36 36 36 40 42 42 41 38 36 34
5 4 0 1 3 2 6 8 2 1 3 5 5 6 7 7 10 15 11 11 7 7 7 7 11 19 24 30 33 37 38 41 41 39 38 38 38 40 42 42 41 39 37 35
3 4 2 3 7 11 3 5 3 4 5 5 2 8 8 14 10 10 12 6 8 9 8 8 9 18 24 27 33 39 40 39 39 39 38 38 39 41 42 42 41 39 38 36
9 4 5 9 2 2 4 4 7 5 5 4 2 15 4 8 8 8 10 8 3 6 8 8 11 19 23 28 31 36 38 40 40 39 39 39 40 42 42 42 41 39 38 36
9 4 2 6 2 4 4 5 7 4 3 12 5 16 3 0 4 7 9 4 5 6 7 7 8 14 19 23 29 32 36 39 39 40 40 40 41 43 43 43 41 40 38 36
5 4 9 16 3 6 7 8 11 16 8 14 17 24 4 6 8 7 9 8 6 7 8 8 9 12 21 26 29 32 34 39 40 40 42 42 43 45 44 42 41 40 39 37
10 8 6 16 10 5 7 9 16 20 32 10 34 19 26 14 10 11 8 6 6 8 9 12 13 13 20 23 26 30 34 40 43 42 43 43 43 43 42 42 41 40 38 36
9 6 11 26 23 10 14 9 22 28 29 24 32 28 3 5 4 5 12 10 10 9 11 13 13 13 21 28 30 31 34 38 42 41 39 39 41 42 43 42 41 40 38 36
11 7 6 16 8 11 7 31 21 12 20 23 23 39 8 18 16 18 15 10 11 13 15 13 16 17 24 31 32 34 33 35 40 40 39 41 43 43 42 40 39 39 38 35
5 13 7 11 3 11 21 14 19 26 26 20 23 33 20 14 15 11 6 7 13 13 10 10 11 19 27 28 30 29 33 37 38 35 38 41 40 40 39 38 38 37 36 34
12 12 8 8 14 15 14 11 12 11 27 28 29 30 26 17 4 25 10 14 15 11 14 16 24 23 24 30 33 34 34 34 33 34 37 40 42 42 41 39 38 37 33 31
20 19 10 4 7 12 24 10 7 7 15 23 18 26 26 7 10 22 4 5 10 11 8 11 16 22 26 27 34 33 30 30 32 32 33 39 42 43 42 40 38 33 32 34
9 14 21 17 14 5 7 5 2 10 9 0 6 14 6 10 11 2 6 4 3 3 4 9 20 21 23 29 32 26 26 29 31 34 36 38 40 40 39 37 32 31 34 36
9 8 8 8 12 16 3 3 12 4 3 3 2 2 4 6 7 5 4 5 2 2 5 12 15 16 21 27 29 23 23 24 27 29 31 31 32 32 30 32 34 33 36 38
4 6 4 7 4 6 5 6 4 4 0 2 2 4 4 4 3 2 2 2 3 4 8 13 18 18 18 24 26 20 18 21 21 22 24 26 29 34 36 33 32 33 35 33
4 2 2 2 6 7 7 6 5 4 3 3 2 1 3 1 1 1 2 3 4 4 8 16 21 18 16 19 19 19 23 21 23 25 26 27 28 29 30 31 31 31 32 31
3 7 6 4 4 1 6 6 5 8 8 2 3 2 1 3 3 2 2 2 2 5 10 18 19 18 18 16 15 15 18 20 21 21 22 23 24 26 25 25 25 27 26 26
4 6 5 5 3 3 2 1 6 7 6 7 6 2 1 0 3 3 4 3 3 8 14 17 20 24 20 18 17 16 15 16 19 19 19 21 21 22 22 22 17 15 14 13
Wind_Direction
12 119 206 205 200 147 147 186 214 238 226 174 227 253 261 220 218 239 237 230 231 231 228 223 213 209 204 203 199 194 187 188 185 176 170 168 165 165 164 166 163 174 170 167
48 234 228 154 182 194 167 211 252 280 247 184 263 255 258 203 229 217 224 231 230 229 202 205 209 206 204 201 198 193 191 187 186 184 180 176 168 164 161 161 160 169 169 170
177 216 146 159 163 178 226 200 218 226 348 243 327 279 241 250 226 242 237 235 234 223 216 199 194 202 204 204 199 195 193 192 191 189 182 175 166 159 157 157 159 164 167 165
237 239 150 172 198 161 235 205 192 218 125 244 151 284 262 247 255 233 249 231 238 228 206 195 194 196 201 204 200 197 195 194 196 195 189 184 174 165 170 165 162 161 160 156
230 182 175 192 200 171 226 137 171 155 166 18 207 262 250 36 260 255 251 246 243 215 199 198 197 199 198 199 197 197 196 195 197 196 194 187 182 177 171 167 161 158 157 155
233 177 172 202 98 156 145 80 57 59 105 255 224 189 216 197 223 241 248 252 236 217 205 202 199 190 188 198 197 197 195 195 197 198 197 196 190 178 168 164 162 160 158 156
143 221 189 151 101 70 126 96 309 323 19 242 46 177 253 281 254 230 253 259 256 211 172 172 173 181 181 189 193 193 193 193 198 199 199 198 193 186 179 172 168 163 160 159
198 253 169 188 191 166 189 165 173 210 205 269 86 232 249 228 254 261 260 268 234 171 186 189 188 186 184 185 187 189 190 192 197 199 199 199 195 189 185 179 174 170 167 163
175 254 239 127 147 157 191 208 201 23 110 360 226 280 286 256 266 273 256 250 215 219 207 192 185 189 184 184 188 189 189 194 198 200 200 199 196 193 187 181 178 174 170 166
222 274 5 201 115 38 172 157 82 9 233 251 266 262 225 247 242 249 267 257 210 226 201 186 186 189 187 188 189 191 195 198 200 201 204 202 198 195 191 183 181 178 174 171
164 183 268 130 210 171 147 202 188 145 166 195 285 252 217 216 207 221 243 255 229 214 199 184 185 187 186 188 192 195 199 201 200 201 203 202 198 195 191 187 185 182 178 176
209 192 204 201 253 210 206 237 160 148 228 246 179 260 180 205 206 205 252 259 236 198 187 182 178 177 181 188 193 197 200 204 205 202 202 200 197 194 192 191 188 186 184 182
171 218 325 328 25 353 212 194 197 109 77 233 159 262 19 151 267 243 235 247 212 185 172 174 169 183 186 190 195 197 200 203 204 202 199 198 196 195 195 194 192 190 188 186
175 192 201 233 198 147 192 194 200 203 220 235 235 253 262 270 251 267 253 254 225 187 188 190 191 193 193 195 196 196 199 204 202 201 199 199 199 198 197 197 196 194 193 191
148 234 243 258 258 206 196 196 198 210 228 201 251 244 251 233 223 235 239 224 193 204 198 203 200 198 196 195 196 198 198 200 203 200 200 201 200 199 198 198 198 198 197 197
165 236 228 257 249 238 245 220 217 215 230 234 255 263 114 258 234 247 242 233 221 217 220 214 207 195 199 197 197 194 195 195 198 196 196 197 198 197 199 200 200 200 200 201
157 190 185 253 242 225 251 239 230 217 226 217 238 248 222 260 242 246 248 218 223 225 223 209 204 203 203 202 195 195 191 189 192 193 195 198 198 197 199 201 201 202 203 202
176 200 188 246 181 227 241 257 233 233 239 230 252 259 242 251 266 247 226 216 234 230 226 218 205 205 206 198 194 191 187 189 189 187 190 196 196 197 199 201 203 204 205 205
215 208 228 229 241 254 286 251 193 187 246 235 233 251 256 252 329 271 190 222 238 219 223 220 213 207 189 188 186 180 181 183 183 185 188 192 198 198 201 202 202 204 203 209
214 222 219 192 235 237 244 266 171 119 252 248 218 242 251 217 246 267 180 220 242 241 247 213 198 182 178 180 179 173 174 177 185 187 187 196 201 204 202 203 202 203 210 220
194 210 222 225 239 258 238 203 172 168 239 279 194 229 261 215 234 322 325 306 325 293 230 187 172 168 171 173 172 166 170 187 192 195 197 198 201 203 205 203 203 213 220 221
182 181 214 231 229 243 93 65 188 242 325 144 170 174 222 255 290 310 318 320 355 107 121 146 129 140 162 171 171 166 176 187 192 191 193 196 199 201 201 210 219 220 219 219
213 193 188 198 197 191 184 192 302 325 144 285 255 195 218 236 255 312 293 51 60 113 113 137 134 136 157 172 177 155 164 175 179 185 193 201 207 211 217 214 206 207 214 218
247 172 206 128 225 237 203 160 176 179 262 282 275 30 167 284 196 187 157 123 99 78 113 137 136 131 133 164 174 182 176 181 182 188 196 201 202 203 208 211 216 214 213 217
191 140 182 265 258 312 271 264 205 179 160 185 312 317 269 212 198 148 125 97 101 111 124 144 136 132 133 145 153 160 171 175 177 183 186 190 196 198 199 207 211 215 221 226
192 189 184 221 227 189 219 290 193 179 178 177 176 188 213 201 151 128 130 124 123 125 133 129 133 131 131 132 131 145 159 169 172 174 181 187 189 193 197 195 191 205 216 223